Regional Weather Roundup
Issued by NWS

Home | Current Version | Previous Version | Graphics & Text | Print | Product List | Glossary On
Versions: 1 2 3 4 5 6 7 8 9 10 11 12 13 14 15 16 17 18 19 20 21 22 23 24 25 26 27 28 29 30 31 32 33 34 35 36 37 38 39 40 41 42 43 44 45 46 47 48 49 50
000
ASUS43 KLMK 122302
RWRKY
KENTUCKY REGIONAL WEATHER ROUNDUP
NATIONAL WEATHER SERVICE LOUISVILLE KY
700 PM EDT SAT JUL 12 2014

NOTE "FAIR" INDICATES FEW OR NO CLOUDS BELOW 12,000 FEET
WITH NO SIGNIFICANT WEATHER AND/OR OBSTRUCTIONS TO VISIBILITY.

KYZ001>023-026-027-061>063-070>075-130000-
WESTERN AND SOUTH CENTRAL KENTUCKY

CITY           SKY/WX    TMP DP  RH WIND       PRES   REMARKS
PADUCAH        MOSUNNY   90  72  55 S7        30.07F HX  97
HENDERSON      MOSUNNY   84  73  70 SW7       30.06F HX  91
OWENSBORO      PTSUNNY   87  73  62 SW8       30.08F HX  94
HOPKINSVILLE   NOT AVBL
BOWLING GREEN  PTSUNNY   89  64  43 NW5       30.09F HX  90
GLASGOW        NOT AVBL
$$

KYZ024-025-028>034-038-045-046-053-130000-
NORTH CENTRAL KENTUCKY

CITY           SKY/WX    TMP DP  RH WIND       PRES   REMARKS
LOUISVILLE/SDF CLOUDY    88  67  49 VRB6      30.07F HX  91
LOUISVILLE/LOU CLOUDY    87  65  47 S8        30.08F
FORT KNOX      NOT AVBL
$$

KYZ035>037-039>044-047>052-055>060-089>105-130000-
NORTHEAST KENTUCKY

CITY           SKY/WX    TMP DP  RH WIND       PRES   REMARKS
LEXINGTON      CLOUDY    87  65  47 SW5       30.11F
COVINGTON      CLOUDY    82  66  58 S9        30.09F
FRANKFORT      CLOUDY    84  67  56 SW6       30.09F
$$

KYZ054-064>069-076>088-106>120-130000-
SOUTHEAST KENTUCKY

CITY           SKY/WX    TMP DP  RH WIND       PRES   REMARKS
JACKSON        PTSUNNY   86  62  44 CALM      30.14F
LONDON         PTSUNNY   88  57  34 SE3       30.14F
SOMERSET       PTSUNNY   88  54  31 CALM      30.12F
MIDDLESBORO    PTSUNNY   83  68  60 W3        30.15F
MONTICELLO     MOCLDY    91  57  31 CALM      30.13F
$$



USA.gov is the U.S. government's official web portal to all federal, state and local government web resources and services.